False Pass, AK

1:45 AM HDT on May 28, 2017 (GMT -0900)
False Pass

Weather History for PAKF - November, 2013

Change the Weather History Date:

Sunday, November 3, 2013

  Actual Average (PACD) Record (PACD)
Temperature  
Mean Temperature 44 °F -  
Max Temperature 43 °F 40 °F 52 °F (2013)
Min Temperature 42 °F 31 °F 15 °F (1976)
Degree Days  
Heating Degree Days 21    
Moisture  
Dew Point 40 °F    
Average Humidity 83    
Maximum Humidity 100    
Minimum Humidity 71    
Precipitation  
Precipitation 0.28 in - - ()
Sea Level Pressure  
Sea Level Pressure 29.51 in    
Wind  
Wind Speed 17 mph (SSE)    
Max Wind Speed 29 mph    
Max Gust Speed 37 mph    
Visibility 9 miles    
Events Rain    
Averages and records for this station are not official NWS values.
T = Trace of Precipitation, MM = Missing Value Source: NWS Daily Summary

Daily Weather History Graph

Daily Weather History Graph

Search for Another Location

Airport or City:

Trip Planner

Search our weather history database for the weather conditions in past years. The results will help you decide how hot, cold, wet, or windy it might be!

Date:

Astronomy

Nov. 03, 2013 Rise Set
Actual Time 8:01 AM HST 5:11 PM HST
Civil Twilight 7:23 AM HST 5:50 PM HST
Nautical Twilight 6:40 AM HST 6:33 PM HST
Astronomical Twilight 5:58 AM HST 7:15 PM HST
Moon 8:24 AM HST (11/3) 5:28 PM HST (11/3)
Length of Visible Light 10h 27m
Length of Day
9h 09m
New Moon, 0% of the Moon is Illuminated
Nov 3
New Moon
Nov 9
First Quarter
Nov 17
Full
Nov 25
Last Quarter
Dec 2
New

Hourly Weather History & Observations

Time (HST) Temp. Windchill Dew Point Humidity Pressure Visibility Wind Dir Wind Speed Gust Speed Precip Events Conditions
12:01 AM 44.1 °F 36.5 °F 39.9 °F 85% 29.77 in 10.0 mi SSE 17.3 mph 31.1 mph N/A   Clear
12:26 AM 44.6 °F 37.8 °F 39.2 °F 81% 29.49 in 10.0 mi SE 15.0 mph 21.9 mph N/A   Scattered Clouds
1:01 AM 44.1 °F 38.1 °F 39.9 °F 85% 29.77 in 10.0 mi SE 11.5 mph 24.2 mph N/A   Clear
1:48 AM 44.6 °F 35.9 °F 39.2 °F 81% 29.48 in 10.0 mi SE 23.0 mph 36.8 mph N/A   Partly Cloudy
1:01 AM 44.1 °F 34.8 °F 39.0 °F 82% 29.75 in 10.0 mi SE 25.3 mph 34.5 mph N/A   Partly Cloudy
2:01 AM 44.6 °F 37.4 °F 37.4 °F 76% 29.48 in 10.0 mi SE 16.1 mph 29.9 mph N/A   Mostly Cloudy
3:01 AM 44.1 °F 37.4 °F 39.9 °F 85% 29.73 in 10.0 mi SE 13.8 mph 21.9 mph N/A   Overcast
3:51 AM 44.6 °F 37.4 °F 39.2 °F 81% 29.41 in 10.0 mi SSE 16.1 mph 28.8 mph 0.00 in   Overcast
3:58 AM 44.6 °F 36.1 °F 39.2 °F 81% 29.41 in 10.0 mi SSE 21.9 mph 32.2 mph 0.00 in   Overcast
4:01 AM 44.1 °F 35.7 °F 39.9 °F 85% 29.69 in 10.0 mi SSE 20.7 mph 32.2 mph 0.00 in   Overcast
5:01 AM 44.1 °F 38.6 °F 39.9 °F 85% 29.68 in 10.0 mi SSE 10.4 mph 25.3 mph N/A   Overcast
5:40 AM 44.6 °F 37.2 °F 41.0 °F 87% 29.41 in 10.0 mi SE 17.3 mph 23.0 mph 0.00 in Rain Light Rain
6:01 AM 44.1 °F 37.1 °F 42.1 °F 93% 29.68 in 9.0 mi SSE 15.0 mph 20.7 mph 0.00 in   Overcast
7:01 AM 45.0 °F 37.9 °F 42.1 °F 90% 29.65 in 9.0 mi SE 16.1 mph 23.0 mph 0.00 in Rain Light Rain
7:17 AM 44.6 °F 37.2 °F 42.8 °F 93% 29.37 in 10.0 mi SE 17.3 mph 28.8 mph 0.00 in   Overcast
8:01 AM 45.0 °F 39.3 °F 42.1 °F 90% 29.63 in 8.0 mi SSE 11.5 mph 32.2 mph 0.00 in Rain Light Rain
8:25 AM 44.6 °F 37.4 °F 42.8 °F 93% 29.35 in 2.5 mi SSE 16.1 mph 26.5 mph 0.02 in Rain Light Rain
8:35 AM 44.6 °F 38.4 °F 44.6 °F 100% 29.35 in 2.5 mi SSE 12.7 mph 29.9 mph 0.03 in Rain Light Rain
8:45 AM 46.4 °F 39.0 °F 44.6 °F 93% 29.34 in 3.0 mi SSE 19.6 mph 31.1 mph 0.04 in Rain Light Rain
9:01 AM 46.0 °F 37.6 °F 44.1 °F 93% 29.62 in 5.0 mi SE 24.2 mph 36.8 mph 0.04 in Rain Light Rain
10:01 AM 46.4 °F 37.4 °F 39.2 °F 76% 29.33 in 10.0 mi South 28.8 mph 35.7 mph 0.00 in   Mostly Cloudy
10:19 AM 46.4 °F 38.5 °F 39.2 °F 76% 29.34 in 8.0 mi SSE 21.9 mph 35.7 mph 0.00 in Rain Light Rain
10:54 AM 46.4 °F 38.3 °F 39.2 °F 76% 29.35 in 10.0 mi SSE 23.0 mph 34.5 mph 0.02 in Rain Light Rain
11:01 AM 46.0 °F 38.5 °F 39.0 °F 76% 29.63 in 10.0 mi SSE 19.6 mph 27.6 mph 0.02 in   Mostly Cloudy
12:01 PM 45.0 °F 37.4 °F 39.9 °F 82% 29.62 in 10.0 mi SSE 18.4 mph 26.5 mph 0.02 in Rain Light Rain
1:01 PM 46.0 °F 37.8 °F 39.0 °F 76% 29.59 in 9.0 mi SSE 23.0 mph 31.1 mph 0.02 in Rain Light Rain
2:01 PM 46.0 °F 38.3 °F 39.0 °F 76% 29.56 in 10.0 mi SSE 20.7 mph 28.8 mph 0.00 in   Overcast
3:01 PM 45.0 °F 37.1 °F 41.0 °F 86% 29.55 in 9.0 mi SE 19.6 mph 27.6 mph 0.00 in Rain Light Rain
5:01 PM 44.1 °F 36.5 °F 39.0 °F 82% 29.54 in 5.0 mi SSE 17.3 mph 21.9 mph 0.03 in Rain Light Rain
6:01 PM 44.1 °F 37.4 °F 39.9 °F 85% 29.53 in 10.0 mi SSE 13.8 mph 20.7 mph 0.09 in Rain Light Rain
7:01 PM 44.1 °F 38.1 °F 39.9 °F 85% 29.52 in 10.0 mi SSE 11.5 mph - 0.02 in Rain Light Rain
8:01 PM 44.1 °F 41.5 °F 39.9 °F 85% 29.52 in 7.0 mi Variable 4.6 mph - 0.03 in Rain Light Rain
8:16 PM 44.6 °F 39.7 °F 39.2 °F 81% 29.25 in 10.0 mi West 9.2 mph - 0.00 in Rain Light Rain
8:36 PM 42.8 °F 38.6 °F 37.4 °F 81% 29.26 in 9.0 mi West 6.9 mph - 0.00 in Rain Light Rain
9:01 PM 43.0 °F 36.0 °F 36.0 °F 76% 29.53 in 9.0 mi WSW 13.8 mph 24.2 mph 0.01 in Rain Light Rain
9:10 PM 44.6 °F 42.2 °F 35.6 °F 71% 29.26 in 10.0 mi Variable 4.6 mph 21.9 mph 0.00 in Rain Light Rain
10:01 PM 44.1 °F 40.8 °F 37.0 °F 76% 29.56 in 10.0 mi SSE 5.8 mph - 0.00 in Rain Light Rain